Skip Page Navigation
NASA JPL Caltech
NASA Logo - Jet Propulsion Laboratory + View the NASA Portal
+ Center for Near-Earth Object Studies
JPL Home Earth Solar System Stars & Galaxies Technology
JPL Solar System Dynamics
BODIES ORBITS EPHEMERIDES TOOLS PHYSICAL DATA DISCOVERY FAQ SITE MAP
IMPORTANT: The SSD Announcement email list is now available. Major changes are coming in the near future, including possible hostname and/or URL changes. To be notified of such changes, subscribe to this email list.

Please visit this page for more details.


JPL Small-Body Database Browser
Search: [ help ]  
3546 Atanasoff (1983 SC)
Classification: Main-belt Asteroid          SPK-ID: 2003546
Ephemeris | Orbit Diagram | Orbital Elements | Mission Design | Physical Parameters | Discovery Circumstances | Close-Approach Data ]

[ show orbit diagram ]
Orbital Elements at Epoch 2458600.5 (2019-Apr-27.0) TDB
Reference: JPL 27 (heliocentric ecliptic J2000)
 Element Value Uncertainty (1-sigma)   Units 
e .02657174267047264 3.4967e-08  
a 2.693691773330794 1.1121e-08 au
q 2.622115688696279 9.3966e-08 au
i 7.026588026037336 4.2451e-06 deg
node 335.1781921857983 2.949e-05 deg
peri 248.5739829055532 8.387e-05 deg
M 147.7013887547513 7.9573e-05 deg
tp 2457937.974871884495
(2017-Jul-03.47487188)
0.00035669 TDB
period 1614.805711255774
4.42
1.0001e-05
2.738e-08
d
yr
n .2229370366296522 1.3807e-09 deg/d
Q 2.765267857965309 1.1417e-08 au
  Orbit Determination Parameters
   # obs. used (total)      2368  
   data-arc span      22650 days (62.01 yr)  
   first obs. used      1957-11-23  
   last obs. used      2019-11-28  
   planetary ephem.      DE431  
   SB-pert. ephem.      SB431-N16  
   condition code      0  
   norm. resid. RMS      .48331  
   source      ORB  
   producer      Otto Matic  
   solution date      2019-Dec-03 20:50:31  

Additional Information
 Earth MOID = 1.62397 au 
 Jupiter MOID = 2.23007 au 
 T_jup = 3.359 
[ show covariance matrix ]

Ephemeris | Orbit Diagram | Orbital Elements | Mission Design | Physical Parameters | Discovery Circumstances | Close-Approach Data ]

Physical Parameter Table
Parameter Symbol Value Units Sigma Reference Notes
absolute magnitude H 12.3   n/a MPO452213  
diameter diameter 9.980 km 1.014 urn:nasa:pds:neowise_diameters_albedos::2.0[mainbelt] (http://adsabs.harvard.edu/abs/2012ApJ...759L...8M)  
rotation period rot_per 3.754 h n/a LCDB (Rev. 2019-January); Warner et al., 2009 Result based on less than full coverage, so that the period may be wrong by 30 percent or so.
Published Reference List:
[Waszczak, A.; Chang, C.-K.; Ofeck, E.O.; Laher, F.; et al. (2015) Astron. J. 150, A75.]
geometric albedo albedo 0.234   0.044 urn:nasa:pds:neowise_diameters_albedos::2.0[mainbelt] (http://adsabs.harvard.edu/abs/2012ApJ...759L...8M)  
SMASSII spectral type spec_B Sa   n/a EAR-A-5-DDR-TAXONOMY-V4.0 based on a high-resolution spectrum by Xu et al. (1995) or Bus and Binzel (2002)

3546 Atanasoff (1983 SC)          Discovered 1983-Sep-28 by Helin, E. F. and Shkodrav, V. at Rozhen
and V. Ivanova and A. Georgieva.
Reference: DISCOVERY.DBLast Updated: 2003-08-29

[ show close-approach data ]
Alternate Designations
 1983 SC = 1957 WJ = 1977 FH2 = 1979 SX10 = 1979 VC1 
Ephemeris | Orbit Diagram | Orbital Elements | Mission Design | Physical Parameters | Discovery Circumstances | Close-Approach Data ]
ABOUT SSD CREDITS/AWARDS PRIVACY/COPYRIGHT GLOSSARY LINKS
FirstGov 2019-Dec-12 08:50 UT
(server date/time)  
NASA Home Page
Site Manager:   Ryan S. Park
Webmaster  Alan B. Chamberlin